Location: ?????????
(54.7630°N, 39.4991°E)
Time: 17:59:29
(UTC+00:00)

SL-16 R/B - Pass Details

Date: 14 April 2026
Orbit: 839 x 849 km, 71.0° (Epoch: 16 May)

Event Time Altitude Azimuth Distance (km) Brightness Sun altitude
Exits shadow 17:49:36 10° 93° (E) 2,439 4.1 -11.8°
Maximum altitude 17:49:38 10° 93° (E) 2,439 4.1 -11.8°
Drops below altitude 10° 17:50:32 10° 84° (E) 2,469 4.2 -11.9°
Sets 17:55:31 0° 46° (NE) 3,415 5.3 -12.5°
